Regional Weather Roundup
Issued by NWS Sterling, VA

Home | Current Version | Previous Version | Text Only | Print | Product List | Glossary On
Versions: 1 2 3 4 5 6 7 8 9 10 11 12 13 14 15 16 17 18 19 20 21 22 23 24 25 26 27
000
ASUS41 KLWX 211611
RWRLWX

REGIONAL WEATHER ROUNDUP
NATIONAL WEATHER SERVICE BALTIMORE MD/WASHINGTON DC
1200 PM EDT FRI JUL 21 2017

Note: "FAIR" indicates few or no clouds below 12,000 feet
with no significant weather and/or obstructions to visibility.
 TC=TEMPERATURE CELSIUS

 * =Non NWS site. Station does not report precipitation (e.g. rain,
    snow, etc.), thunder, or fog.

DCZ001-MDZ009-015-VAZ040>042-051-053>054-211700-
WASHINGTON METRO

CITY           SKY/WX    TMP DP  RH WIND       PRES   REMARKS
WASHINGTON NAT MOSUNNY   91  70  49 E5        29.95F HX  96
DULLES         PTSUNNY   89  70  53 VRB6      29.96F HX  94
ANDREWS AFB    MOSUNNY   91  69  47 W3        29.95F HX  96
FT BELVOIR     MOSUNNY   91  71  52 E3        29.96S HX  98
QUANTICO       PTSUNNY   93  72  50 N7        29.96F HX 101
LEESBURG*      CLOUDY    90  73  58 W5        29.98S HX  98
MANASSAS*      PTSUNNY   90  72  55 NW7       29.97S HX  97
GAITHERSBURG*  PTSUNNY   87  73  62 VRB5      29.99S HX  94

$$

MDZ006>007-011-014-211700-
BALTIMORE METRO

CITY           SKY/WX    TMP DP  RH WIND       PRES   REMARKS
BWI AIRPORT    MOSUNNY   91  70  49 NW5       29.94S HX  96
MD SCIENCE CTR   N/A     92  68  45 MISG      29.94S HX  96
MARTIN STATE   MOSUNNY   90  75  62 SE8       29.96S HX 100
ANNAPOLIS      SUNNY     86  75  69 E10       29.95S HX  95
FORT MEADE*      N/A     91  68  46 N5        29.98R HX  95

$$

MDZ012-015-019>023-211700-
MARYLAND EASTERN SHORE

CITY           SKY/WX    TMP DP  RH WIND       PRES   REMARKS
OCEAN CITY     MOSUNNY   87  74  64 E8        29.95S HX  95
SALISBURY      SUNNY     90  73  58 NW5       29.95F HX  98
BAY BRIDGE AP* SUNNY     88  73  62 N7        29.96R HX  96
CAMBRIDGE*     SUNNY     90  73  58 CALM      29.95S HX  98
EASTON*        SUNNY     91  70  49 CALM      29.98F HX  97

$$

MDZ017>025-211700-
SOUTHERN MARYLAND

CITY           SKY/WX    TMP DP  RH WIND       PRES   REMARKS
PATUXENT RIVER MOSUNNY   89  74  60 N6        29.96S HX  98
ST INIGOES     SUNNY     89  74  60 W3        29.95F HX  98
LEONARDTOWN*   SUNNY    N/A N/A N/A N3        29.98S

$$

MDZ003>005-211700-
NORTH CENTRAL MARYLAND

CITY           SKY/WX    TMP DP  RH WIND       PRES   REMARKS
FREDERICK*     PTSUNNY   90  70  51 E3        29.99S HX  95
HAGERSTOWN APT MOSUNNY   88  72  58 NW5       29.97F HX  94
WESTMINSTER*   PTSUNNY   88  72  58 MISG      29.98F HX  94

$$

MDZ501>502-211700-
WESTERN MARYLAND

CITY           SKY/WX    TMP DP  RH WIND       PRES   REMARKS
OAKLAND*       PTSUNNY   73  68  83 W5        30.09S
CUMBERLAND*    CLOUDY    90  72  55 NE3       30.02S HX  96

$$

VAZ025>031-211700-
SHENANDOAH VALLEY

CITY           SKY/WX    TMP DP  RH WIND       PRES   REMARKS
WINCHESTER*    PTSUNNY   86  68  54 CALM      29.98F
FRONT ROYAL*   CLOUDY    90  70  51 S5        29.98S HX  95
LURAY*         CLOUDY    88  70  55 SW3       30.01R HX  92
NEW MARKET*    MOSUNNY   91  69  48 S7        29.98F HX  95
STAUNTON*      MOSUNNY   89  69  51 S7        30.05S HX  93
WAYNESBORO*    SUNNY     86  70  58 SW3       30.05F HX  91

$$

WVZ021-048>050-054>055-211700-
EASTERN WEST VIRGINIA PANHANDLE

CITY           SKY/WX    TMP DP  RH WIND       PRES   REMARKS
MARTINSBURG    MOSUNNY   89  69  51 VRB3      29.97S HX  93
PETERSBURG*    CLOUDY    91  73  55 CALM      30.00S HX  98

$$

VAZ036>039-050-211700-
CENTRAL FOOTHILLS

CITY           SKY/WX    TMP DP  RH WIND       PRES   REMARKS
CHARLOTTESVILL MOSUNNY   93  69  45 SW5       29.99F HX  98
CULPEPER*      MOSUNNY   91  71  51 NE5       29.99S HX  97
ORANGE*        SUNNY     90  68  48 CALM      29.98S HX  93
GORDONSVILLE*  SUNNY     92  69  45 CALM      29.97F HX  97
WARRENTON*     PTSUNNY   92  67  43 CALM      29.98S HX  95

$$

VAZ055>057-211700-
NORTH AND CENTRAL PIEDMONT

CITY           SKY/WX    TMP DP  RH WIND       PRES   REMARKS
FREDERICKSBRG* SUNNY     91  72  53 CALM      29.96S HX  98
STAFFORD*      MOSUNNY   91  69  48 W3        30.01S HX  95

$$

NCZ024-NYZ072-PAZ021-071-VAZ022-071-211700-
OTHER REGIONAL OBSERVATIONS

CITY           SKY/WX    TMP DP  RH WIND       PRES   REMARKS
NEW YORK CITY  SUNNY     88  66  48 VRB5      29.94S HX  90
PHILADELPHIA   PTSUNNY   90  67  46 NW5       29.93F HX  93
PITTSBURGH     CLOUDY    83  71  67 E3        30.00S
ROANOKE        CLOUDY    88  71  57 W5        30.07S HX  94
RICHMOND       PTSUNNY   95  70  44 NE7       29.97F HX 101
RALEIGH        PTSUNNY   95  70  44 SW9       30.01F HX 101

$$

ANZ530>537-211700-
MARINE OBSERVATIONS

STATION/POSITION TIME  TEMP    WIND        PRES
                       AIR SEA DIR/SP/G
                 (UTC) (F)     (DEG/KT/KT) (MB)
THOMAS PT LIGHT  1600   84 83   40/  5/  6   N/A
BALT KEY BRIDGE  1548   85     130/ 10/ 11 1013.8S
COVE POINT       1548   84     350/  6/  8 1015.2F
LEWISETTA        1548   87 84   30/  3/  6 1014.5F
SOLOMONS ISLAND  1548   87 84  320/  6/  8   N/A
PINEY POINT      1542          280/  6/  6   N/A

$$





USA.gov is the U.S. government's official web portal to all federal, state and local government web resources and services.